Regional Weather Roundup
Issued by NWS

Home | Current Version | Previous Version | Text Only | Print | Product List | Glossary On
Versions: 1 2 3 4 5 6 7 8 9 10 11 12 13 14 15 16 17 18 19 20 21 22 23 24 25 26 27 28 29 30 31 32 33 34 35 36 37 38 39 40 41 42 43 44 45 46 47 48 49 50
000
ASUS44 KLIX 290711
RWRLA
LOUISIANA WEATHER ROUNDUP
NATIONAL WEATHER SERVICE NEW ORLEANS LA
200 AM CDT SAT AUG 29 2015

NOTE: "FAIR" INDICATES FEW OR NO CLOUDS BELOW 12,000 FEET WITH NO
      SIGNIFICANT WEATHER AND/OR OBSTRUCTIONS TO VISIBILITY.
      SKY/WX - SKY CONDITION AND SIGNIFICANT WEATHER.
      TMP - AIR TEMPERATURE.    DP   - DEWPOINT TEMPERATURE.
      RH  - RELATIVE HUMIDITY.  PRES - PRESSURE.
      HX  - HEAT INDEX.         WCI  - WIND CHILL INDEX.

*  THESE STATIONS ARE NOT NWS OR FAA STATIONS AND ARE NOT UNDER
   NWS QUALITY CONTROL.

LAZ040-048-061>063-065-066-069-290800-
SOUTHEAST LOUISIANA

CITY           SKY/WX    TMP DP  RH WIND       PRES   REMARKS
N.O. AUDUBON   NOT AVBL
N.O. INTL ARPT PTCLDY    79  67  66 SE8       30.00S
N.O. LAKEFRONT CLEAR     79  69  71 SE9       30.01F
N.O. DOWNTOWN* PTSUNNY   81  70  69 SE6       30.01F
RESERVE*       FAIR      73  69  87 CALM      30.00F
SLIDELL        CLEAR     67  66  97 CALM      30.01F
BATON ROUGE    MOCLDY    71  68  90 CALM      30.01F
BOOTHVILLE     CLEAR     78  66  66 SE5       30.02F
BELLE CHASSE   MOCLDY    79  70  74 SE8       30.00F
BOGALUSA*      NOT AVBL
GALLIANO*      PTSUNNY   74  72  91 S3        30.00S
NEW ROADS*     FAIR      70  67  89 CALM      30.01F
GONZALES*      FAIR      69  69 100 CALM      30.00F
HAMMOND*       CLEAR     68  64  88 CALM      30.03S
HOUMA*         CLEAR     68  67  96 CALM      29.99F
PORT FOURCHON* SUNNY     82  68  61 S12       30.01F

$$

LAZ041-044-053-054-290800-
SOUTHWEST LOUISIANA

CITY           SKY/WX    TMP DP  RH WIND       PRES   REMARKS
LAKE CHARLES   CLEAR     69  67  93 CALM      30.00S
LAFAYETTE      CLEAR     70  66  87 CALM      30.00F
PATTERSON      MOCLDY    70  66  88 CALM      30.02S
SALT POINT       N/A     74  68  81 CALM      29.99S
NEW IBERIA     CLEAR     70  66  87 CALM      30.01F
CHENAULT AIRPK CLEAR     71  66  84 CALM      30.01S

$$

LAZ027-028-290800-
CENTRAL LOUISIANA

CITY           SKY/WX    TMP DP  RH WIND       PRES   REMARKS
FORT POLK      CLEAR     70  63  79 W5        30.01S
ALEXANDRIA INT CLEAR     64  62  93 CALM      30.00R
ALEXANDRIA     CLEAR     66  62  87 CALM      30.01S

$$

LAZ001-002-290800-
NORTHWEST LOUISIANA

CITY           SKY/WX    TMP DP  RH WIND       PRES   REMARKS
SHREVEPORT     MOCLDY    71  63  75 CALM      30.00S
BARKSDALE AFB  MOCLDY    68  64  86 SE3       30.00S
DTN SHREVEPORT MOCLDY    70  65  84 CALM      30.00F

$$

LAZ014-016-290800-
NORTHEAST LOUISIANA

CITY           SKY/WX    TMP DP  RH WIND       PRES   REMARKS
MONROE         CLEAR     65  61  87 CALM      30.01F
TALLULAH       CLEAR     65  63  93 S7        30.01S

$$



USA.gov is the U.S. government's official web portal to all federal, state and local government web resources and services.